Zurück zum Katalog

STARLINK-34878

AktivKommunikationVLEO
NORAD 65334·PAYLOAD·🇺🇸 United States

Gestartet Aug 27, 2025 von Cape Canaveral Space Force Station

Loading…

Nächste Überflüge (nächste 24 Stunden)

TLE

AktuellSource: CelesTrak SupGP

Epoche: Sep 14, 2026, 21:01 UTC

1 65334C 25189M   26257.87618056  .00026877  00000+0  86458-3 0  2579
2 65334  53.1589  46.8372 0001154  81.6522  90.7472 15.31678632    11

Verfolge STARLINK-34878 in Echtzeit mit AllMySat

Download on the App Store